Location: Newark
(27.9675°N, 86.8869°E)
Time: 04:35:29
(UTC+00:00)

Transit 2A - All Passes

Search period start: 21 October 2019 00:00
Search period end: 31 October 2019 00:00
Orbit: 600 x 958 km, 66.7° (Epoch: 20 October)

Date Brightness Start Highest point End Pass type
(mag) Time Alt. Az. Time Alt. Az. Time Alt. Az.
21 Oct - 00:11:49 10° W 00:13:35 12° WSW 00:15:23 10° SW daylight
21 Oct - 11:18:10 10° SE 11:21:26 15° ESE 11:24:33 10° ENE daylight
21 Oct - 12:58:44 10° SW 13:04:18 51° WNW 13:09:22 10° NNE visible
21 Oct - 21:53:13 10° N 21:56:41 23° ENE 22:00:12 10° ESE visible
21 Oct - 23:36:20 10° WNW 23:39:37 21° WSW 23:42:59 10° SSW visible
22 Oct - 12:24:24 10° SSW 12:30:12 80° WNW 12:35:25 10° NNE visible
22 Oct - 21:20:05 10° NNE 21:22:27 14° ENE 21:24:48 10° E visible
22 Oct - 23:01:38 10° NW 23:05:35 35° WSW 23:09:42 10° S visible
23 Oct - 11:50:23 10° SSW 11:56:06 66° ESE 12:01:17 10° NNE visible
23 Oct - 13:37:05 10° W 13:39:28 13° WNW 13:41:47 10° NNW visible
23 Oct - 22:27:16 10° NNW 22:31:33 63° WSW 22:36:00 10° SSE visible
24 Oct - 11:16:38 10° S 11:22:02 41° ESE 11:26:57 10° NE daylight
24 Oct - 13:01:14 10° WSW 13:05:13 20° WNW 13:08:57 10° NNW visible
24 Oct - 21:53:09 10° NNW 21:57:29 74° ENE 22:01:57 10° SSE visible
25 Oct - 10:43:16 10° SSE 10:47:59 27° ESE 10:52:22 10° NE daylight
25 Oct - 12:26:08 10° WSW 12:31:01 30° WNW 12:35:30 10° N visible
25 Oct - 21:19:15 10° N 21:23:22 42° ENE 21:27:36 10° SE visible
25 Oct - 23:04:56 10° W 23:06:04 11° WSW 23:07:14 10° WSW visible
26 Oct - 10:10:26 10° SE 10:13:58 17° ESE 10:17:19 10° ENE daylight
26 Oct - 11:51:26 10° SW 11:56:52 46° WNW 12:01:48 10° N visible
26 Oct - 20:45:35 10° N 20:49:13 25° ENE 20:52:54 10° ESE night (unlit)
26 Oct - 22:29:00 10° WNW 22:32:06 19° WSW 22:35:16 10° SSW visible
27 Oct - 11:17:04 10° SSW 11:22:44 73° WNW 11:27:53 10° NNE daylight
27 Oct - 20:12:18 10° NNE 20:14:59 16° ENE 20:17:41 10° E night (unlit)
27 Oct - 21:54:13 10° NW 21:58:06 32° WSW 22:02:06 10° S night (unlit)
28 Oct - 10:42:57 10° SSW 10:48:39 72° ESE 10:53:48 10° NNE daylight
28 Oct - 12:30:24 10° WNW 12:32:04 11° NW 12:33:42 10° NW visible
28 Oct - 21:19:48 10° NW 21:24:02 56° WSW 21:28:29 10° S night (unlit)
29 Oct - 10:09:10 10° S 10:14:35 45° ESE 10:19:31 10° NE daylight
29 Oct - 11:54:10 10° W 11:57:47 18° WNW 12:01:13 10° NNW visible
29 Oct - 20:45:38 10° NNW 20:49:59 83° ENE 20:54:30 10° SSE night (unlit)
30 Oct - 09:35:42 10° SSE 09:40:32 29° ESE 09:44:59 10° NE daylight
30 Oct - 11:18:55 10° WSW 11:23:34 27° WNW 11:27:53 10° N daylight
30 Oct - 20:11:40 10° N 20:15:52 47° ENE 20:20:14 10° SE night (unlit)
